Regional Weather Roundup
Issued by NWS Albany, NY

Home | Current Version | Previous Version | Text Only | Print | Product List | Glossary On
Versions: 1 2 3 4 5 6 7 8 9 10 11 12 13 14 15 16 17 18 19 20 21 22 23 24 25 26 27
000
ASUS41 KALY 171010
RWRALY

NEW YORK STATE HOURLY WEATHER ROUNDUP
NATIONAL WEATHER SERVICE ALBANY NY
600 AM EDT THU AUG 17 2017

NOTE: "FAIR" INDICATES FEW OR NO CLOUDS BELOW 12,000 FEET WITH NO
SIGNIFICANT WEATHER AND/OR NO OBSTRUCTIONS TO VISIBILITY.

NYZ032-033-038>043-046>054-057>066-NYZ062>081-082-084-171100-
EAST


CITY           SKY/WX    TMP DP  RH WIND       PRES   REMARKS
ALBANY         PTCLDY    53  49  86 CALM      30.09R
GLENS FALLS    FOG       45  44  97 CALM      30.07S VSB 3/4
POUGHKEEPSIE   CLEAR     56  53  90 CALM      30.06R
NEWBURGH       PTCLDY    61  57  88 VRB5      30.08R
MONTGOMERY     MOCLDY    58  56  93 CALM      30.06R
WHITE PLAINS   PTCLDY    64  55  72 N7        30.05R
ISLIP          PTCLDY    66  61  84 N5        30.03R
NEW YORK CITY  MOCLDY    71  57  61 NE8       30.03R
CENTRAL PARK   MOCLDY    70  55  59 N3        30.07R
$$

NYZ005>009-017-018-044>046-055-056-171100-
CENTRAL


CITY           SKY/WX    TMP DP  RH WIND       PRES   REMARKS
FULTON         CLEAR     50  48  93 E3        30.07S
SYRACUSE       PTCLDY    52  50  93 E3        30.07R
ROME           CLEAR     49  48  97 E3        30.10R
ELMIRA         CLOUDY    57  55  93 CALM      30.07R
BINGHAMTON     PTCLDY    52  52 100 E3        30.08S
MONTICELLO     PTCLDY    53  52  96 MISG      30.10R
$$

NYZ026>034-041>043-087-171100-
NORTH


CITY           SKY/WX    TMP DP  RH WIND       PRES   REMARKS
WATERTOWN      PTCLDY    48  48 100 E3        30.06S
FORT DRUM      NOT AVBL
OGDENSBURG     FAIR      54  53  97 CALM      30.06R
MASSENA        CLOUDY    53  52  96 SW5       30.06S
SARANAC LAKE   MOCLDY    38  38 100 CALM      30.08S
PLATTSBURGH    CLEAR     50  48  93 S3        30.03S
$$

NYZ001>004-010>016-019>021-085-171100-
WEST


CITY           SKY/WX    TMP DP  RH WIND       PRES   REMARKS
NIAGARA FALLS  CLEAR     61  55  81 E3        30.02S
BUFFALO        PTCLDY    61  58  90 SE6       30.03R
DUNKIRK        CLEAR     57  56  96 CALM      30.01S
JAMESTOWN      PTCLDY    58  57  97 CALM      30.06S FOG
WELLSVILLE     CLEAR     57  55  93 SE6       30.10R FOG
ROCHESTER      PTCLDY    57  55  93 CALM      30.06R
PENN YAN       MOCLDY    58  56  93 CALM      30.08R FOG
$$

             KEY
       WCI = WIND CHILL INDEX
       VSB = VISIBILITY
       HX  = HEAT INDEX
$$




USA.gov is the U.S. government's official web portal to all federal, state and local government web resources and services.